Weather History for Asheboro, NC

Change the Weather History Date:

Saturday, January 11, 2014

  Actual Average Record
Temperature  
Mean Temperature 52 °F -  
Max Temperature 65 °F 47 °F 73 °F (2000)
Min Temperature 39 °F 29 °F 0 °F (1982)
Degree Days  
Heating Degree Days 13    
Growing Degree Days 2 (Base 50)    
Moisture  
Dew Point 50 °F    
Average Humidity 97    
Maximum Humidity 100    
Minimum Humidity 71    
Precipitation  
Precipitation 0.84 in - - ()
Sea Level Pressure  
Sea Level Pressure 29.81 in    
Wind  
Wind Speed 4 mph (SSW)    
Max Wind Speed 17 mph    
Max Gust Speed 44 mph    
Visibility 6 miles    
Events Fog , Rain    
Averages and records for this station are not official NWS values.
T = Trace of Precipitation, MM = Missing Value Source: NWS Daily Summary

Daily Weather History Graph

Daily Weather History Graph

Search for Another Location

Airport:

Trip Planner

Search our weather history database for the weather conditions in past years. The results will help you decide how hot, cold, wet, or windy it might be!

Date:

Astronomy

Jan. 11, 2014 Rise Set
Actual Time 7:29 AM EST 5:25 PM EST
Civil Twilight 7:01 AM EST 5:53 PM EST
Nautical Twilight 6:29 AM EST 6:25 PM EST
Astronomical Twilight 5:59 AM EST 6:56 PM EST
Moon 2:07 PM EST (1/11) 3:34 AM EST (1/11)
Length of Visible Light 10h 52m
Length of Day
9h 56m
Waxing Gibbous, 83% of the Moon is Illuminated
Jan 11
Waxing Gibbous
Jan 15
Full
Jan 24
Last Quarter
Jan 30
New
Feb 6
First Quarter

Hourly Weather History & Observations

Time (EST) Temp. Dew Point Humidity Pressure Visibility Wind Dir Wind Speed Gust Speed Precip Events Conditions
12:15 AM 39.6 °F 39.6 °F 100% 30.11 in 1.2 mi Calm Calm - 0.01 in Rain Light Rain
12:35 AM 40.1 °F 40.1 °F 100% 30.09 in 2.0 mi Calm Calm - 0.01 in   Light Drizzle
12:55 AM 40.1 °F 40.1 °F 100% 30.08 in 2.0 mi Calm Calm - 0.02 in Rain Rain
1:15 AM 40.1 °F 40.1 °F 100% 30.07 in 2.5 mi Calm Calm - N/A   Overcast
1:35 AM 40.1 °F 40.1 °F 100% 30.05 in 2.0 mi Calm Calm - 0.02 in Rain Light Rain
1:55 AM 40.3 °F 40.3 °F 100% 30.04 in 3.0 mi Calm Calm - 0.02 in   Overcast
2:15 AM 40.3 °F 40.3 °F 100% 30.04 in 2.0 mi Calm Calm - N/A   Overcast
2:35 AM 40.1 °F 40.1 °F 100% 30.03 in 1.2 mi Calm Calm - 0.01 in   Overcast
2:55 AM 40.1 °F 40.1 °F 100% 30.02 in 0.8 mi Calm Calm - 0.01 in   Overcast
3:15 AM 40.5 °F 40.5 °F 100% 30.01 in 0.5 mi Calm Calm - N/A Fog Fog
3:35 AM 40.3 °F 40.3 °F 100% 30.00 in 0.5 mi Calm Calm - N/A Fog Fog
3:55 AM 40.5 °F 40.5 °F 100% 29.97 in 0.5 mi Calm Calm - N/A Fog Fog
4:15 AM 40.6 °F 40.6 °F 100% 29.97 in 0.5 mi Calm Calm - N/A Fog Fog
4:35 AM 41.0 °F 41.0 °F 100% 29.97 in 0.5 mi Calm Calm - N/A Fog Fog
4:55 AM 41.0 °F 41.0 °F 100% 29.96 in 0.8 mi Calm Calm - N/A   Overcast
5:15 AM 41.2 °F 41.2 °F 100% 29.94 in 0.8 mi Calm Calm - N/A   Overcast
5:35 AM 53.8 °F 53.8 °F 100% 29.93 in 0.5 mi South 11.5 mph 16.1 mph N/A Fog Fog
5:55 AM 50.2 °F 50.2 °F 100% 29.92 in 1.2 mi WNW 4.6 mph - N/A   Overcast
6:15 AM 42.3 °F 42.3 °F 100% 29.91 in 0.8 mi Calm Calm - N/A   Overcast
6:35 AM 42.8 °F 42.8 °F 100% 29.91 in 0.8 mi Calm Calm - N/A   Overcast
6:55 AM 42.8 °F 42.8 °F 100% 29.91 in 0.8 mi Calm Calm - N/A   Overcast
7:15 AM 42.8 °F 42.8 °F 100% 29.89 in 0.5 mi Calm Calm - N/A Fog Fog
7:35 AM 45.0 °F 45.0 °F 100% 29.87 in 0.2 mi Calm Calm - 0.01 in Fog Fog
7:55 AM 57.4 °F 57.4 °F 100% 29.86 in 3.0 mi South 12.7 mph 19.6 mph 0.01 in   Overcast
8:15 AM 47.1 °F 47.1 °F 100% 29.91 in 2.0 mi WSW 3.5 mph 17.3 mph 0.04 in Rain Heavy Rain
8:35 AM 47.8 °F 47.8 °F 100% 29.90 in 5.0 mi South 4.6 mph - 0.20 in Rain Light Rain
8:55 AM 51.4 °F 51.4 °F 100% 29.89 in 4.0 mi SSW 6.9 mph - 0.28 in Rain Rain
9:15 AM 52.7 °F 52.7 °F 100% 29.87 in 2.5 mi SSE 5.8 mph - 0.12 in Rain Rain
9:35 AM 53.8 °F 53.8 °F 100% 29.86 in 3.0 mi SSE 8.1 mph - 0.12 in   Light Drizzle
9:55 AM 55.4 °F 55.4 °F 100% 29.85 in 3.0 mi South 13.8 mph 20.7 mph 0.12 in   Light Drizzle
10:15 AM 57.0 °F 57.0 °F 100% 29.83 in 5.0 mi SSE 15.0 mph 24.2 mph 0.02 in Rain Light Rain
10:35 AM 58.5 °F 58.5 °F 100% 29.80 in 7.0 mi SSE 11.5 mph 21.9 mph 0.05 in Rain Light Rain
10:55 AM 59.9 °F 59.9 °F 100% 29.78 in 10.0 mi SSE 10.4 mph 23.0 mph 0.05 in   Scattered Clouds
11:15 AM 61.0 °F 61.0 °F 100% 29.77 in 10.0 mi South 15.0 mph 20.7 mph N/A   Overcast
11:35 AM 62.8 °F 62.8 °F 100% 29.75 in 10.0 mi South 12.7 mph 20.7 mph N/A   Overcast
11:55 AM 64.4 °F 64.4 °F 100% 29.72 in 10.0 mi South 16.1 mph 25.3 mph 0.01 in   Overcast
12:15 PM 65.3 °F 63.3 °F 93% 29.69 in 10.0 mi South 17.3 mph 25.3 mph N/A   Overcast
12:35 PM 65.5 °F 62.8 °F 91% 29.66 in 7.0 mi South 16.1 mph 29.9 mph N/A Rain Light Rain
12:55 PM 62.2 °F 61.7 °F 98% 29.73 in 1.0 mi West 15.0 mph 43.7 mph 0.14 in Rain Rain
1:15 PM 55.4 °F 55.4 °F 100% 29.75 in 10.0 mi West 6.9 mph - 0.02 in Rain Rain
1:35 PM 54.5 °F 54.5 °F 100% 29.75 in 10.0 mi SW 5.8 mph - 0.03 in Rain Rain
1:55 PM 54.5 °F 54.5 °F 100% 29.75 in 7.0 mi SW 3.5 mph - 0.07 in Rain Rain
2:15 PM 54.5 °F 54.5 °F 100% 29.76 in 7.0 mi SW 5.8 mph - 0.04 in Rain Rain
2:35 PM 54.5 °F 54.5 °F 100% 29.76 in 10.0 mi West 3.5 mph - 0.05 in Rain Light Rain
3:00 PM 54.5 °F 54.5 °F 100% 29.75 in 5.0 mi Calm Calm - 0.01 in Rain Rain
3:15 PM 54.7 °F 54.7 °F 100% 29.73 in 7.0 mi Calm Calm - 0.03 in Rain Rain
3:35 PM 55.2 °F 55.2 °F 100% 29.72 in 10.0 mi SSW 3.5 mph - 0.04 in Rain Light Rain
3:55 PM 55.8 °F 55.8 °F 100% 29.68 in 10.0 mi South 4.6 mph - 0.04 in Rain Light Rain
4:15 PM 55.4 °F 55.0 °F 99% 29.63 in 10.0 mi SE 8.1 mph - 0.01 in Rain Light Rain
4:35 PM 55.8 °F 54.5 °F 96% 29.66 in 10.0 mi South 6.9 mph - 0.01 in   Scattered Clouds
4:55 PM 55.8 °F 53.2 °F 91% 29.66 in 10.0 mi South 6.9 mph - 0.02 in   Clear
5:15 PM 55.6 °F 52.2 °F 88% 29.66 in 10.0 mi SSW 5.8 mph - N/A   Clear
5:35 PM 55.4 °F 52.2 °F 89% 29.67 in 10.0 mi SSW 11.5 mph - N/A   Clear
5:55 PM 55.4 °F 52.3 °F 89% 29.65 in 10.0 mi South 9.2 mph - N/A   Clear
6:15 PM 55.6 °F 52.7 °F 90% 29.65 in 10.0 mi SSW 11.5 mph - N/A   Clear
6:35 PM 55.4 °F 53.1 °F 92% 29.64 in 10.0 mi SSW 10.4 mph - N/A   Scattered Clouds
6:55 PM 55.2 °F 53.6 °F 94% 29.64 in 10.0 mi SSW 12.7 mph 16.1 mph N/A   Scattered Clouds
7:15 PM 55.2 °F 53.8 °F 95% 29.65 in 10.0 mi SSW 13.8 mph 19.6 mph N/A   Mostly Cloudy
7:35 PM 55.0 °F 54.0 °F 96% 29.66 in 10.0 mi SSW 15.0 mph 21.9 mph N/A   Overcast
7:55 PM 55.4 °F 53.8 °F 94% 29.67 in 10.0 mi SSW 15.0 mph 23.0 mph N/A   Overcast
8:15 PM 55.2 °F 53.6 °F 94% 29.68 in 10.0 mi SSW 13.8 mph 18.4 mph N/A   Overcast
8:35 PM 54.9 °F 53.1 °F 94% 29.68 in 10.0 mi SW 10.4 mph - N/A   Overcast
8:55 PM 54.5 °F 52.9 °F 94% 29.70 in 10.0 mi SW 8.1 mph - N/A   Overcast
9:15 PM 54.5 °F 52.9 °F 94% 29.71 in 10.0 mi WSW 4.6 mph - N/A   Overcast
9:35 PM 54.1 °F 52.7 °F 95% 29.71 in 10.0 mi SSW 4.6 mph - N/A   Overcast
9:55 PM 53.8 °F 52.7 °F 96% 29.70 in 10.0 mi South 8.1 mph - N/A   Mostly Cloudy
10:15 PM 53.4 °F 52.2 °F 95% 29.70 in 10.0 mi SSW 5.8 mph - N/A   Scattered Clouds
10:35 PM 53.4 °F 52.2 °F 95% 29.71 in 10.0 mi SSW 8.1 mph - N/A   Scattered Clouds
10:55 PM 53.8 °F 52.5 °F 95% 29.72 in 10.0 mi SW 6.9 mph - N/A   Mostly Cloudy
11:15 PM 53.6 °F 51.1 °F 91% 29.73 in 10.0 mi West 5.8 mph 9.2 mph N/A Rain Light Rain
11:35 PM 53.4 °F 45.5 °F 75% 29.73 in 10.0 mi West 3.5 mph - N/A   Overcast
11:55 PM 53.1 °F 43.9 °F 71% 29.74 in 10.0 mi West 4.6 mph - N/A   Mostly Cloudy